GW1943 Weather Reports


time (UTC)temp
F
wind
direction
speed
knots
gust
knots
rain 1hr
in
rain 24hr
in
rain mn
in
humidity
%
barometer
mb
20260901022108 70 193 0.0 1.7 0.00 0.00 0.00 67 1009.9
20260901021604 71 177 0.0 1.7 0.00 0.00 0.00 66 1009.7
20260901021058 71 214 0.0 0.0 0.00 0.00 0.00 67 1009.8
20260901020554 70 211 0.0 0.0 0.00 0.00 0.00 67 1009.8
20260901020049 70 217 0.0 0.0 0.00 0.00 0.00 67 1009.9
20260901015545 70 200 0.0 0.9 0.00 0.00 0.00 66 1009.8
20260901015044 71 206 0.0 0.9 0.00 0.00 0.00 66 1009.7
20260901014540 71 204 0.0 0.9 0.00 0.00 0.00 65 1009.8
20260901014036 71 215 0.0 0.0 0.00 0.00 0.00 65 1009.9
20260901013531 72 26 0.0 0.9 0.00 0.00 0.00 63 1009.6
20260901013027 72 207 0.0 0.9 0.00 0.00 0.00 63 1009.7
20260901012526 72 211 0.0 0.9 0.00 0.00 0.00 63 1009.6
20260901012022 73 213 0.0 1.7 0.00 0.00 0.00 62 1009.7
20260901011519 73 215 0.0 0.9 0.00 0.00 0.00 63 1009.7
20260901011016 73 211 0.0 0.9 0.00 0.00 0.00 62 1009.8
20260901010511 73 37 1.7 1.7 0.00 0.00 0.00 61 1009.8
20260901010011 74 187 0.9 2.6 0.00 0.00 0.00 60 1009.9
20260901005505 73 265 0.0 1.7 0.00 0.00 0.00 60 1009.9
20260901005001 74 208 0.9 1.7 0.00 0.00 0.00 60 1009.8
20260901004500 74 208 0.0 0.9 0.00 0.00 0.00 59 1009.6
20260901003955 74 21 3.5 4.3 0.00 0.00 0.00 58 1009.8
20260901003450 75 33 0.0 1.7 0.00 0.00 0.00 59 1009.8
20260901002948 75 234 0.0 0.9 0.00 0.00 0.00 58 1009.9
20260901002448 75 203 0.9 2.6 0.00 0.00 0.00 57 1009.8
20260901001942 76 239 0.9 1.7 0.00 0.00 0.00 56 1009.8
20260901001438 78 311 0.9 4.3 0.00 0.00 0.00 54 1009.9
20260901000933 77 231 0.0 4.3 0.00 0.00 0.00 54 1009.9
20260901000428 79 351 2.6 6.1 0.00 0.00 0.00 52 1009.8
20260831235926 79 194 0.0 1.7 0.00 0.00 0.00 52 1009.8
20260831235423 79 219 0.0 0.9 0.00 0.00 0.00 52 1009.9
20260831234917 78 41 1.7 2.6 0.00 0.00 0.00 51 1009.9
20260831234412 78 72 0.0 5.2 0.00 0.00 0.00 53 1010.2
20260831233907 79 55 2.6 4.3 0.00 0.00 0.00 50 1010.5
20260831233402 80 209 0.0 4.3 0.00 0.00 0.00 52 1010.4
20260831232858 79 15 0.9 1.7 0.00 0.00 0.00 51 1010.2
20260831232353 79 232 0.0 4.3 0.00 0.00 0.00 53 1010.2
20260831231849 79 256 0.0 0.9 0.00 0.00 0.00 50 1010.6
20260831231346 77 213 1.7 4.3 0.00 0.00 0.00 53 1010.4
20260831230841 77 212 0.0 1.7 0.00 0.00 0.00 53 1010.5
20260831230335 78 238 1.7 1.7 0.00 0.00 0.00 51 1010.5
20260831225830 77 215 0.0 0.9 0.00 0.00 0.00 54 1010.5
20260831225324 76 109 0.9 2.6 0.00 0.00 0.00 52 1010.7
20260831224820 78 195 0.0 2.6 0.00 0.00 0.00 52 1010.8
20260831224315 79 181 1.7 4.3 0.00 0.00 0.00 50 1010.7
20260831223809 80 261 1.7 2.6 0.00 0.00 0.00 49 1010.7
20260831223306 79 29 0.9 1.7 0.00 0.00 0.00 51 1010.8
20260831222803 78 13 0.9 5.2 0.00 0.00 0.00 51 1010.9
20260831222258 79 217 0.0 4.3 0.00 0.00 0.00 52 1010.8
20260831221753 78 7 1.7 4.3 0.00 0.00 0.00 50 1011.4
20260831221248 80 204 0.9 1.7 0.00 0.00 0.00 49 1011.1
20260831220743 80 26 1.7 1.7 0.00 0.00 0.00 48 1011.1
20260831220238 79 28 0.9 2.6 0.00 0.00 0.00 51 1011.2
20260831215738 79 355 1.7 2.6 0.00 0.00 0.00 51 1011.1
20260831215235 81 227 0.0 0.0 0.00 0.00 0.00 53 1011.2
20260831214731 81 210 0.0 2.6 0.00 0.00 0.00 52 1011.5
20260831214228 78 206 0.0 1.7 0.00 0.00 0.00 52 1011.3
20260831213723 77 221 0.0 4.3 0.00 0.00 0.00 55 1011.5
20260831213220 78 242 2.6 2.6 0.00 0.00 0.00 51 1011.6
20260831212715 79 215 0.0 1.7 0.00 0.00 0.00 54 1011.4
20260831212212 78 212 0.9 1.7 0.00 0.00 0.00 53 1011.5
20260831211710 77 211 0.0 1.7 0.00 0.00 0.00 57 1011.6
20260831211205 77 309 1.7 1.7 0.00 0.00 0.00 53 1011.4
20260831210705 77 223 0.0 2.6 0.00 0.00 0.00 54 1011.7
20260831210201 77 196 0.0 1.7 0.00 0.00 0.00 53 1011.6
20260831205700 77 269 1.7 4.3 0.00 0.00 0.00 52 1011.9
20260831205156 76 201 0.9 5.2 0.00 0.00 0.00 55 1011.8
20260831204651 76 210 0.0 1.7 0.00 0.00 0.00 55 1011.8
20260831204149 77 192 0.9 2.6 0.00 0.00 0.00 53 1012.0
20260831203644 75 231 0.0 1.7 0.00 0.00 0.00 57 1012.1
20260831203143 75 212 0.0 2.6 0.00 0.00 0.00 56 1012.0
20260831202643 75 218 0.0 1.7 0.00 0.00 0.00 58 1012.0
20260831202137 75 216 0.0 1.7 0.00 0.00 0.00 58 1012.2
20260831201636 75 208 0.0 1.7 0.00 0.00 0.00 58 1012.1
20260831201131 75 214 0.0 2.6 0.00 0.00 0.00 59 1012.1
20260831200622 75 213 1.7 2.6 0.00 0.00 0.00 56 1012.1
20260831200121 74 202 0.9 2.6 0.00 0.00 0.00 57 1012.3
20260831195617 74 75 2.6 4.3 0.00 0.00 0.00 57 1012.7
20260831195112 74 190 0.9 0.9 0.00 0.00 0.00 58 1012.6
20260831194607 73 216 0.0 1.7 0.00 0.00 0.00 62 1012.8
20260831194102 72 195 0.0 1.7 0.00 0.00 0.00 63 1012.9
20260831193557 72 177 0.0 0.9 0.00 0.00 0.00 65 1012.8
20260831193057 72 209 0.0 1.7 0.00 0.00 0.00 64 1012.9
20260831192552 71 193 0.9 0.9 0.00 0.00 0.00 66 1013.1
20260831192048 70 214 0.0 1.7 0.00 0.00 0.00 67 1013.1
20260831191543 71 214 0.0 1.7 0.00 0.00 0.00 65 1012.9
20260831191039 70 237 0.0 1.7 0.00 0.00 0.00 65 1013.0
20260831190535 70 203 0.0 0.9 0.00 0.00 0.00 69 1013.2
20260831190033 69 180 1.7 1.7 0.00 0.00 0.00 66 1013.3
20260831185529 69 66 0.9 2.6 0.00 0.00 0.00 66 1013.3
20260831185024 69 54 1.7 1.7 0.00 0.00 0.00 67 1013.5
20260831184518 68 27 0.9 1.7 0.00 0.00 0.00 67 1013.7
20260831184014 68 245 0.9 1.7 0.00 0.00 0.00 70 1013.7
20260831183513 66 223 0.0 1.7 0.00 0.00 0.00 71 1013.6
20260831183013 66 215 0.0 2.6 0.00 0.00 0.00 72 1013.7
20260831182508 66 121 0.9 1.7 0.00 0.00 0.00 73 1013.7
20260831182003 66 226 0.9 1.7 0.00 0.00 0.00 72 1013.6
20260831181458 65 208 0.9 0.9 0.00 0.00 0.00 74 1013.8
20260831180953 65 203 0.0 0.0 0.00 0.00 0.00 74 1013.9
20260831180447 65 208 0.0 1.7 0.00 0.00 0.00 74 1013.9
20260831175947 65 212 0.0 0.9 0.00 0.00 0.00 75 1014.1
20260831175443 64 210 0.0 0.9 0.00 0.00 0.00 77 1014.0
20260831174938 64 231 0.9 2.6 0.00 0.00 0.00 76 1014.1
20260831174434 63 220 0.0 1.7 0.00 0.00 0.00 77 1014.1
20260831173933 63 198 0.9 1.7 0.00 0.00 0.00 78 1014.2
20260831173432 62 263 0.0 0.0 0.00 0.00 0.00 80 1013.9
20260831172928 62 212 0.0 0.0 0.00 0.00 0.00 82 1014.1
20260831172423 62 211 0.9 1.7 0.00 0.00 0.00 81 1014.2
20260831171918 61 220 0.0 1.7 0.00 0.00 0.00 82 1014.3
20260831171414 61 210 0.0 1.7 0.00 0.00 0.00 82 1014.3
20260831170911 60 209 0.0 0.9 0.00 0.00 0.00 84 1014.1
20260831170407 60 217 0.0 0.0 0.00 0.00 0.00 85 1014.4
20260831165903 60 209 0.0 0.0 0.00 0.00 0.00 85 1014.4
20260831165359 60 270 0.0 0.9 0.00 0.00 0.00 86 1014.3
20260831164855 60 202 0.0 0.0 0.00 0.00 0.00 86 1014.3
20260831164351 59 219 0.9 1.7 0.00 0.00 0.00 86 1014.3
20260831163846 59 241 0.0 0.9 0.00 0.00 0.00 88 1014.7
20260831163342 58 206 0.0 0.0 0.00 0.00 0.00 89 1014.7
20260831162840 58 228 0.0 0.9 0.00 0.00 0.00 89 1014.7
20260831162336 58 36 1.7 1.7 0.00 0.00 0.00 90 1014.6
20260831161834 57 210 0.9 1.7 0.00 0.00 0.00 92 1014.9
20260831161331 57 201 0.0 0.0 0.00 0.00 0.00 93 1014.7
20260831160826 56 184 0.0 0.0 0.00 0.00 0.00 95 1015.0
20260831160325 56 268 0.9 1.7 0.00 0.00 0.00 95 1014.8
20260831155820 56 197 0.0 0.9 0.00 0.00 0.00 96 1015.0
20260831155315 55 210 0.0 0.0 0.00 0.00 0.00 97 1015.0
20260831154811 55 209 0.0 0.9 0.00 0.00 0.00 97 1015.0
20260831154308 55 201 0.0 0.0 0.00 0.00 0.00 98 1015.1
20260831153806 55 198 0.0 0.0 0.00 0.00 0.00 98 1015.1
20260831153302 55 202 0.0 0.0 0.00 0.00 0.00 98 1015.3
20260831152758 55 202 0.0 0.0 0.00 0.00 0.00 98 1015.2
20260831152253 54 207 0.0 0.0 0.00 0.00 0.00 98 1015.2
20260831151748 54 212 0.0 0.0 0.00 0.00 0.00 98 1015.5
20260831151247 54 200 0.0 0.0 0.00 0.00 0.00 98 1015.2
20260831150742 54 208 0.0 0.0 0.00 0.00 0.00 98 1015.0
20260831150238 54 208 0.0 0.0 0.00 0.00 0.00 98 1015.3
20260831145736 54 208 0.0 0.0 0.00 0.00 0.00 98 1015.3
20260831145233 54 210 0.0 0.0 0.00 0.00 0.00 98 1015.2
20260831144728 54 213 0.0 0.0 0.00 0.00 0.00 98 1015.3
20260831144225 54 204 0.0 0.0 0.00 0.00 0.00 98 1015.2
20260831143724 54 204 0.0 0.0 0.00 0.00 0.00 98 1015.3
20260831143220 53 210 0.0 0.0 0.00 0.00 0.00 98 1015.1
20260831142715 54 210 0.0 0.0 0.00 0.00 0.00 98 1015.2
20260831142210 53 210 0.0 0.0 0.00 0.00 0.00 98 1015.1
20260831141710 53 195 0.0 0.0 0.00 0.00 0.00 98 1015.1
20260831141205 53 195 0.0 0.0 0.00 0.00 0.00 98 1015.2
20260831140704 53 195 0.0 0.0 0.00 0.00 0.00 98 1014.9
20260831140159 53 195 0.0 0.0 0.00 0.00 0.00 98 1015.2
20260831135657 53 195 0.0 0.0 0.00 0.00 0.00 97 1015.2
20260831135153 53 195 0.0 0.0 0.00 0.00 0.00 97 1015.2
20260831134649 53 195 0.0 0.0 0.00 0.00 0.00 97 1015.0
20260831134144 53 195 0.0 0.0 0.00 0.00 0.00 97 1015.1
20260831133643 53 195 0.0 0.0 0.00 0.00 0.00 97 1015.1
20260831133138 54 195 0.0 0.0 0.00 0.00 0.00 97 1014.8
20260831132634 54 195 0.0 0.0 0.00 0.00 0.00 96 1015.1
20260831132133 54 195 0.0 0.0 0.00 0.00 0.00 96 1015.0
20260831131628 54 195 0.0 0.0 0.00 0.00 0.00 96 1015.0
20260831131124 54 194 0.0 0.0 0.00 0.00 0.00 96 1015.0
20260831130619 54 195 0.0 0.0 0.00 0.00 0.00 96 1015.1
20260831130115 54 196 0.0 0.0 0.00 0.00 0.00 96 1015.1
20260831125613 54 196 0.0 0.0 0.00 0.00 0.00 96 1015.1
20260831125109 54 197 0.0 0.0 0.00 0.00 0.00 96 1015.4
20260831124605 54 197 0.0 0.0 0.00 0.00 0.00 96 1015.0
20260831124101 54 197 0.0 0.0 0.00 0.00 0.00 96 1015.1
20260831123600 54 197 0.0 0.0 0.00 0.00 0.00 95 1015.3
20260831123054 54 197 0.0 0.0 0.00 0.00 0.00 96 1015.5
20260831122549 54 197 0.0 0.0 0.00 0.00 0.00 96 1015.5
20260831122044 54 198 0.0 0.0 0.00 0.00 0.00 96 1015.6
20260831121539 54 199 0.0 0.0 0.00 0.00 0.00 96 1015.5
20260831121035 54 200 0.0 0.0 0.00 0.00 0.00 96 1015.6
20260831120534 54 199 0.0 0.0 0.00 0.00 0.00 97 1015.5
20260831120030 54 200 0.0 0.0 0.00 0.00 0.00 96 1015.5
20260831115526 54 200 0.0 0.0 0.00 0.00 0.00 96 1015.5
20260831115021 54 201 0.0 0.0 0.00 0.00 0.00 96 1015.7
20260831114520 54 201 0.0 0.0 0.00 0.00 0.00 96 1015.6
20260831114016 54 201 0.0 0.0 0.00 0.00 0.00 96 1015.9
20260831113514 54 201 0.0 0.0 0.00 0.00 0.00 96 1015.9
20260831113010 54 201 0.0 0.0 0.00 0.00 0.00 95 1016.0
20260831112509 54 201 0.0 0.0 0.00 0.00 0.00 95 1015.8
20260831112004 54 201 0.0 0.0 0.00 0.00 0.00 95 1016.1
20260831111501 54 201 0.0 0.0 0.00 0.00 0.00 95 1016.1
20260831110956 54 201 0.0 0.0 0.00 0.00 0.00 94 1016.0
20260831110451 55 201 0.0 0.0 0.00 0.00 0.00 94 1016.1
20260831105950 54 201 0.0 0.0 0.00 0.00 0.00 94 1015.9
20260831105445 55 202 0.0 0.0 0.00 0.00 0.00 94 1016.2
20260831104945 55 202 0.0 0.0 0.00 0.00 0.00 93 1016.1
20260831104442 55 202 0.0 0.0 0.00 0.00 0.00 93 1016.1
20260831103937 55 203 0.0 0.0 0.00 0.00 0.00 93 1016.3
20260831103432 55 203 0.0 0.0 0.00 0.00 0.00 93 1016.4
20260831102928 55 203 0.0 0.0 0.00 0.00 0.00 93 1016.2
20260831102427 55 204 0.0 0.0 0.00 0.00 0.00 93 1016.3
20260831101922 55 205 0.0 0.0 0.00 0.00 0.00 93 1016.3
20260831101417 55 202 0.0 0.0 0.00 0.00 0.00 93 1016.2
20260831100914 55 199 0.0 0.0 0.00 0.00 0.00 93 1016.2
20260831100409 55 199 0.0 0.0 0.00 0.00 0.00 92 1016.4
20260831095904 56 199 0.0 0.0 0.00 0.00 0.00 92 1016.4
20260831095403 55 200 0.0 0.0 0.00 0.00 0.00 92 1016.6
20260831094858 56 204 0.0 0.0 0.00 0.00 0.00 92 1016.6
20260831094354 56 204 0.0 0.0 0.00 0.00 0.00 93 1016.7
20260831093850 55 212 0.0 0.0 0.00 0.00 0.00 93 1016.8
20260831093345 55 212 0.0 0.0 0.00 0.00 0.00 93 1016.9
20260831092841 55 212 0.0 0.0 0.00 0.00 0.00 93 1016.9
20260831092336 55 212 0.0 0.0 0.00 0.00 0.00 93 1017.1
20260831091831 55 212 0.0 0.0 0.00 0.00 0.00 93 1017.0
20260831091322 55 212 0.0 0.0 0.00 0.00 0.00 92 1017.0
20260831090817 55 212 0.0 0.0 0.00 0.00 0.00 92 1017.1
20260831090313 55 212 0.0 0.0 0.00 0.00 0.00 92 1017.1
20260831085809 55 212 0.0 0.0 0.00 0.00 0.00 92 1016.9
20260831085306 55 212 0.0 0.0 0.00 0.00 0.00 92 1017.3
20260831084758 55 212 0.0 0.0 0.00 0.00 0.00 91 1017.3
20260831084254 56 212 0.0 0.0 0.00 0.00 0.00 91 1017.1
20260831083750 56 213 0.0 0.0 0.00 0.00 0.00 92 1017.2
20260831083246 56 211 0.0 0.0 0.00 0.00 0.00 92 1017.2
20260831082744 56 211 0.0 0.0 0.00 0.00 0.00 92 1017.1
20260831082239 56 211 0.0 0.0 0.00 0.00 0.00 91 1017.3
20260831081735 56 211 0.0 0.0 0.00 0.00 0.00 91 1017.3
20260831081230 56 211 0.0 0.0 0.00 0.00 0.00 91 1017.3
20260831080725 56 209 0.0 0.0 0.00 0.00 0.00 91 1017.4
20260831080220 56 209 0.0 0.0 0.00 0.00 0.00 91 1017.4
20260831075716 56 213 0.0 0.0 0.00 0.00 0.00 91 1017.6
20260831075212 56 194 0.0 0.0 0.00 0.00 0.00 90 1017.6
20260831074710 56 194 0.0 0.0 0.00 0.00 0.00 89 1017.5
20260831074205 56 194 0.0 0.0 0.00 0.00 0.00 89 1017.6
20260831073700 56 194 0.0 0.0 0.00 0.00 0.00 88 1017.5
20260831073159 56 194 0.0 0.0 0.00 0.00 0.00 88 1017.6
20260831072655 56 194 0.0 0.0 0.00 0.00 0.00 88 1017.6
20260831072151 57 194 0.0 0.0 0.00 0.00 0.00 87 1017.6
20260831071650 57 194 0.0 0.0 0.00 0.00 0.00 87 1017.6
20260831071145 57 194 0.0 0.0 0.00 0.00 0.00 86 1017.7
20260831070644 57 194 0.0 0.0 0.00 0.00 0.00 86 1018.1
20260831070134 57 194 0.0 0.0 0.00 0.00 0.00 85 1017.8
20260831065632 57 194 0.0 0.0 0.00 0.00 0.00 84 1018.0
20260831065131 58 194 0.0 0.0 0.00 0.00 0.00 84 1018.0
20260831064626 58 194 0.0 0.0 0.00 0.00 0.00 83 1017.8
20260831064122 59 194 0.0 0.0 0.00 0.00 0.00 82 1018.0
20260831063618 58 194 0.0 0.0 0.00 0.00 0.00 83 1018.1
20260831063112 58 194 0.0 0.0 0.00 0.00 0.00 82 1018.3
20260831062606 58 194 0.0 0.0 0.00 0.00 0.00 82 1018.2
20260831062101 58 194 0.0 0.0 0.00 0.00 0.00 81 1018.2
20260831061559 59 194 0.0 0.0 0.00 0.00 0.00 80 1018.3
20260831061055 59 194 0.0 0.0 0.00 0.00 0.00 80 1018.3
20260831060551 59 194 0.0 0.0 0.00 0.00 0.00 79 1018.3
20260831060045 58 194 0.0 0.0 0.00 0.00 0.00 81 1018.2
20260831055539 58 195 0.0 0.0 0.00 0.00 0.00 80 1018.1
20260831055035 58 195 0.0 0.0 0.00 0.00 0.00 81 1018.3
20260831054535 58 195 0.0 0.0 0.00 0.00 0.00 81 1018.5
20260831054034 58 195 0.0 0.0 0.00 0.00 0.00 80 1018.6
20260831053533 59 195 0.0 0.0 0.00 0.00 0.00 81 1018.8
20260831053028 59 195 0.0 0.0 0.00 0.00 0.00 79 1018.6
20260831052526 59 195 0.0 0.0 0.00 0.00 0.00 80 1018.8
20260831052027 59 195 0.0 0.0 0.00 0.00 0.00 79 1018.8
20260831051525 59 195 0.0 0.0 0.00 0.00 0.00 78 1018.8
20260831051024 59 195 0.0 0.0 0.00 0.00 0.00 78 1018.9
20260831050524 59 195 0.0 0.0 0.00 0.00 0.00 78 1018.8
20260831050022 60 195 0.0 0.0 0.00 0.00 0.00 78 1019.0
20260831045521 60 195 0.0 0.0 0.00 0.00 0.00 78 1018.9
20260831045017 60 195 0.0 0.0 0.00 0.00 0.00 78 1019.0
20260831044513 60 195 0.0 0.0 0.00 0.00 0.00 78 1019.0
20260831044008 60 195 0.0 0.0 0.00 0.00 0.00 77 1019.1
20260831043508 60 195 0.0 0.0 0.00 0.00 0.00 77 1019.0
20260831043003 60 195 0.0 0.0 0.00 0.00 0.00 77 1019.2
20260831042502 61 195 0.0 0.0 0.00 0.00 0.00 76 1019.1
20260831041957 61 195 0.0 0.0 0.00 0.00 0.00 75 1019.0
20260831041452 61 195 0.0 0.0 0.00 0.00 0.00 75 1018.9
20260831040952 62 195 0.0 0.0 0.00 0.00 0.00 74 1019.1
20260831040447 62 195 0.0 0.0 0.00 0.00 0.00 74 1019.0
20260831035944 62 195 0.0 0.0 0.00 0.00 0.00 73 1019.0
20260831035443 63 196 0.0 0.0 0.00 0.00 0.00 72 1018.9
20260831034939 63 196 0.0 0.0 0.00 0.00 0.00 71 1019.2
20260831034434 63 201 0.0 0.0 0.00 0.00 0.00 72 1018.9
20260831033929 63 203 0.0 0.0 0.00 0.00 0.00 71 1018.9
20260831033424 64 202 0.0 0.0 0.00 0.00 0.00 69 1019.0
20260831032919 64 200 0.0 0.0 0.00 0.00 0.00 70 1018.9
20260831032414 64 196 0.0 0.0 0.00 0.00 0.00 71 1018.9
20260831031909 63 199 0.0 0.0 0.00 0.00 0.00 73 1018.9
20260831031408 63 209 0.0 0.0 0.00 0.00 0.00 73 1018.7
20260831030903 63 209 0.0 0.0 0.00 0.00 0.00 74 1018.8
20260831030402 64 209 0.0 0.0 0.00 0.00 0.00 72 1018.8
20260831025901 64 209 0.0 0.0 0.00 0.00 0.00 72 1018.7
20260831025401 64 209 0.0 0.0 0.00 0.00 0.00 71 1018.9
20260831024856 65 209 0.0 0.0 0.00 0.00 0.00 70 1018.8
20260831024355 65 209 0.0 0.0 0.00 0.00 0.00 68 1018.8
20260831023855 66 209 0.0 0.0 0.00 0.00 0.00 67 1018.7
20260831023354 66 209 0.0 0.0 0.00 0.00 0.00 66 1018.6
20260831022849 68 209 0.0 0.0 0.00 0.00 0.00 65 1018.9